Weather reports worldwide

Advertisment
Frankfurt/Main, Germany (10637): temperature & dewpoint: 10.11.2018 05:00:00 - 16.11.2018 05:00:00 (CET)Frankfurt/Main, Germany (10637): temperature 5cm & temperature -5cm: 10.11.2018 05:00:00 - 16.11.2018 05:00:00 (CET)Frankfurt/Main, Germany (10637): temperature -20cm & temperature -100cm: 10.11.2018 05:00:00 - 16.11.2018 05:00:00 (CET)Frankfurt/Main, Germany (10637): wind speed & gusts: 10.11.2018 05:00:00 - 16.11.2018 05:00:00 (CET)Frankfurt/Main, Germany (10637): wind direction: 10.11.2018 05:00:00 - 16.11.2018 05:00:00 (CET)Frankfurt/Main, Germany (10637): reduced air pressure: 10.11.2018 05:00:00 - 16.11.2018 05:00:00 (CET)Frankfurt/Main, Germany (10637): visibility: 10.11.2018 05:00:00 - 16.11.2018 05:00:00 (CET)Frankfurt/Main, Germany (10637): sunshine duration: 10.11.2018 05:00:00 - 16.11.2018 05:00:00 (CET)Frankfurt/Main, Germany (10637): precipitation: 10.11.2018 05:00:00 - 16.11.2018 05:00:00 (CET)
Date & Time tt [°C] td [°C] tt 5cm [°C] tt -5cm [°C] tt -20cm [°C] tt -100cm [°C] ff [km/h] ff [kn] fx [km/h] fx [kn] dd ppp [hPa] vv [km] sd [min] rr [mm]
16.11.2018 05:00:00 5,9 2,9 5,1 6,8 8,7 12,7 7 4 11 6 NE 1029,4 11 0 0,0
16.11.2018 04:00:00 6,1 2,8 5,7 6,9 8,7 12,7 6 4 14 8 E 1029,3 11 0 0,0
16.11.2018 03:00:00 6,2 2,7 5,6 7,1 8,8 12,7 6 3 25 13 ESE 1029,4 12 0 0,0
16.11.2018 02:00:00 6,9 3,5 6,6 7,3 8,8 12,7 7 4 18 10 E 1029,0 13 0 0,0
16.11.2018 01:00:00 7,1 3,7 6,6 7,4 8,8 12,7 6 3 13 7 ENE 1028,8 14 0 0,0
16.11.2018 00:00:00 7,0 3,9 6,6 7,4 8,8 12,7 8 4 15 8 ENE 1028,8 10 0 0,0
15.11.2018 23:00:00 6,9 4,0 6,5 7,3 8,8 12,7 9 5 9 5 ENE 1028,7 10 0 0,0
15.11.2018 22:00:00 6,8 3,6 6,4 7,3 8,9 12,7 8 4 8 4 ENE 1028,7 10 0 0,0
15.11.2018 21:00:00 6,9 3,5 6,5 7,3 8,9 12,8 5 3 9 5 ENE 1028,6 14 0 0,0
15.11.2018 20:00:00 6,4 3,2 6,1 7,3 9,0 12,8 4 2 8 4 - 1028,4 10 0 0,0
15.11.2018 19:00:00 6,1 3,5 5,9 7,4 9,0 12,8 13 7 9 5 ESE 1028,4 9 0 0,0
15.11.2018 18:00:00 6,2 3,9 6,0 7,5 9,1 12,8 13 7 11 6 E 1028,2 9 0 0,0
15.11.2018 17:00:00 6,2 3,7 6,1 7,6 9,1 12,8 5 3 15 8 ESE 1028,2 8 0 0,0
15.11.2018 16:00:00 6,5 3,9 6,5 7,8 9,1 12,8 11 6 15 8 ENE 1028,1 10 0 0,0
15.11.2018 15:00:00 6,5 4,0 6,5 7,9 9,1 12,8 15 8 15 8 ESE 1028,1 10 0 0,0
15.11.2018 14:00:00 6,6 4,2 6,7 8,0 9,1 12,9 15 8 15 8 E 1028,3 8 0 0,0
15.11.2018 13:00:00 6,6 4,4 6,7 8,0 9,1 12,9 13 7 18 10 ENE 1028,5 9 0 0,0
15.11.2018 12:00:00 6,6 4,6 6,7 7,9 9,1 12,9 9 5 15 8 ENE 1028,8 9 0 0,0
15.11.2018 11:00:00 6,3 4,4 6,5 7,7 9,0 12,9 8 4 13 7 ESE 1029,1 9 0 0,0
15.11.2018 10:00:00 6,1 4,6 6,2 7,5 9,1 12,9 6 4 11 6 E 1029,0 8 0 0,0
15.11.2018 09:00:00 5,9 4,4 5,9 7,4 9,1 12,9 9 5 11 6 SE 1028,8 8 0 0,0
15.11.2018 08:00:00 5,8 4,3 5,7 7,4 9,1 12,9 11 6 12 6 SSE 1028,8 8 0 0,0
15.11.2018 07:00:00 5,8 4,4 5,8 7,4 9,2 13,0 8 4 11 6 SE 1028,5 9 0 0,0
15.11.2018 06:00:00 5,7 4,2 5,7 7,5 9,2 13,0 8 4 9 5 E 1028,6 9 0 0,0
15.11.2018 05:00:00 5,8 4,2 5,8 7,5 9,3 13,0 8 4 9 5 E 1028,6 10 0 0,0
15.11.2018 04:00:00 5,8 4,1 5,7 7,6 9,3 13,0 9 5 10 6 E 1028,6 10 0 0,0
15.11.2018 03:00:00 5,8 4,0 5,8 7,6 9,4 13,0 9 5 13 7 ENE 1028,8 10 0 0,0
15.11.2018 02:00:00 5,8 3,8 5,7 7,6 9,5 13,0 7 4 16 9 E 1029,1 15 0 0,0
15.11.2018 01:00:00 6,1 3,9 5,9 7,9 9,6 13,0 16 9 18 10 E 1029,3 10 0 0,0
15.11.2018 00:00:00 6,7 4,5 6,5 8,1 9,6 13,1 16 9 16 9 ENE 1029,1 10 0 0,0
14.11.2018 23:00:00 7,1 5,2 6,9 8,2 9,7 13,1 13 7 21 11 E 1029,0 10 0 0,0
14.11.2018 22:00:00 7,4 5,3 7,2 8,2 9,7 13,1 9 5 21 11 E 1028,9 10 0 0,0
14.11.2018 21:00:00 7,5 5,5 7,2 8,2 9,7 13,1 11 6 15 8 E 1029,0 10 0 0,0
14.11.2018 20:00:00 7,3 5,7 6,9 8,1 9,8 13,1 7 4 16 9 E 1029,1 12 0 0,0
14.11.2018 19:00:00 6,9 5,4 6,6 8,0 10,0 13,1 13 7 22 12 E 1029,2 10 0 0,0
14.11.2018 18:00:00 6,9 5,2 5,3 8,3 10,1 13,1 13 7 25 14 E 1029,6 20 0 0,0
14.11.2018 17:00:00 8,6 6,4 6,6 9,2 10,2 13,2 9 5 13 7 NE 1029,4 15 33 0,0
14.11.2018 16:00:00 9,0 6,4 9,0 10,0 10,1 13,2 9 5 15 8 ENE 1029,2 10 60 0,0
14.11.2018 15:00:00 8,3 6,5 8,3 10,1 9,9 13,2 9 5 15 8 ENE 1029,5 8 5 0,0
14.11.2018 14:00:00 7,7 6,3 8,6 10,0 9,7 13,2 13 7 15 8 N 1030,0 5 0 0,0
14.11.2018 13:00:00 7,1 6,0 8,0 9,5 9,5 13,2 7 4 14 7 ENE 1030,4 3,8 0 0,0
14.11.2018 12:00:00 6,8 6,2 7,8 9,0 9,3 13,2 8 4 13 7 NNE 1030,8 1,6 0 0,0
14.11.2018 11:00:00 5,9 5,6 6,5 8,3 9,2 13,2 2 1 8 4 W 1031,7 0,2 0 0,0
14.11.2018 10:00:00 5,3 5,1 6,1 7,4 9,1 13,2 5 3 20 11 WSW 1031,4 0,1 0 0,0
14.11.2018 09:00:00 4,5 4,3 4,9 6,7 9,1 13,2 8 4 13 7 E 1031,5 0,3 0 0,0
14.11.2018 08:00:00 3,1 2,6 3,5 6,3 9,2 13,2 4 2 8 4 E 1031,4 0,2 0 0,0
14.11.2018 07:00:00 2,2 1,8 2,4 6,1 9,4 13,2 4 2 8 4 SW 1031,4 0,3 0 0,0
14.11.2018 06:00:00 2,1 2,1 1,8 6,1 9,5 13,2 2 1 4 2 SSW 1031,6 0,2 0 0,0
14.11.2018 05:00:00 2,2 1,7 1,7 6,1 9,8 13,2 2 1 5 3 - 1031,8 0,3 0 0,0
14.11.2018 04:00:00 2,3 2,0 0,3 6,2 10,0 13,2 2 1 5 3 - 1031,9 4,5 0 0,0
14.11.2018 03:00:00 3,2 2,6 0,7 6,6 10,3 13,2 5 3 4 2 S 1032,2 10 0 0,0
14.11.2018 02:00:00 4,4 3,7 2,8 7,0 10,5 13,2 2 1 5 3 ENE 1032,1 25 0 0,0
14.11.2018 01:00:00 5,5 4,9 3,4 7,4 10,8 13,2 5 3 6 3 S 1031,8 40 0 0,0
14.11.2018 00:00:00 5,5 4,6 2,7 7,8 11,1 13,2 4 2 5 3 - 1031,7 10 0 0,0
13.11.2018 23:00:00 6,5 5,2 4,3 8,2 11,4 13,2 13 7 22 12 SSW 1031,5 10 0 0,0
13.11.2018 22:00:00 7,1 5,7 4,9 8,7 11,7 13,2 15 8 29 16 SSW 1031,2 10 0 0,0
13.11.2018 21:00:00 8,0 5,8 5,2 9,2 12,0 13,2 13 7 31 17 S 1030,9 10 0 0,0
13.11.2018 20:00:00 9,1 6,0 6,7 9,9 12,2 13,2 9 5 35 19 SSW 1030,3 10 0 0,0
13.11.2018 19:00:00 10,1 6,1 7,3 10,7 12,5 13,2 13 7 31 17 SSW 1029,9 10 0 0,0
13.11.2018 18:00:00 11,8 6,3 10,2 11,5 12,7 13,2 13 7 29 16 SSW 1029,4 10 0 0,0
13.11.2018 17:00:00 12,3 6,1 10,8 12,1 12,8 13,2 21 11 39 21 SW 1028,6 10 38 0,0
13.11.2018 16:00:00 13,5 7,2 12,7 13,2 12,8 13,2 22 12 41 22 SW 1027,5 60 56 0,0
13.11.2018 15:00:00 14,3 7,0 14,8 14,1 12,6 13,2 32 18 49 27 SW 1026,9 60 56 0,0
13.11.2018 14:00:00 14,1 7,8 14,7 13,7 12,4 13,2 24 13 42 23 SW 1026,6 60 55 0,0
13.11.2018 13:00:00 13,1 8,9 14,4 13,0 12,2 13,2 24 13 45 24 SW 1026,5 70 24 0,0
13.11.2018 12:00:00 12,0 9,5 12,2 12,4 12,1 13,2 15 8 31 17 SW 1026,5 10 0 0,0
13.11.2018 11:00:00 11,4 9,6 11,2 11,7 12,0 13,2 15 8 29 15 SW 1026,6 10 0 0,1
13.11.2018 10:00:00 11,4 10,4 10,8 11,6 12,1 13,2 13 7 29 16 SW 1025,7 10 0 0,7
13.11.2018 09:00:00 11,4 10,5 10,8 11,4 12,1 13,2 11 6 26 14 SSW 1024,5 10 0 0,6
13.11.2018 08:00:00 11,4 10,5 10,8 11,5 12,2 13,2 11 6 29 16 SSW 1023,6 10 0 1,0
13.11.2018 07:00:00 11,6 10,6 10,9 11,6 12,2 13,2 13 7 34 18 SSW 1022,7 10 0 0,6
13.11.2018 06:00:00 11,9 11,0 11,1 11,8 12,3 13,2 13 7 21 11 SSW 1022,4 40 0 0,3
13.11.2018 05:00:00 12,0 11,0 11,3 11,9 12,3 13,2 13 7 22 12 SSW 1021,8 17 0 1,6
13.11.2018 04:00:00 12,8 11,8 12,0 12,0 12,3 13,2 13 7 18 10 SSW 1021,2 10 0 0,3
13.11.2018 03:00:00 12,8 12,1 12,0 12,1 12,3 13,2 9 5 13 7 S 1020,9 10 0 0,4
13.11.2018 02:00:00 13,0 12,3 12,2 12,1 12,3 13,2 8 4 11 6 S 1020,1 10 0 0,0
13.11.2018 01:00:00 13,0 12,4 12,1 12,1 12,3 13,2 5 3 11 6 SW 1020,0 10 0 0,9
13.11.2018 00:00:00 13,0 12,3 12,2 12,1 12,3 13,2 5 3 21 11 SSW 1019,9 8 0 0,7
12.11.2018 23:00:00 12,7 12,2 11,8 12,1 12,3 13,2 5 3 13 7 S 1019,3 40 0 0,0
12.11.2018 22:00:00 13,0 12,3 12,2 12,2 12,4 13,2 4 2 21 11 - 1019,2 10 0 0,0
12.11.2018 21:00:00 12,6 12,1 11,8 12,2 12,4 13,2 2 1 13 7 - 1018,9 10 0 0,0
12.11.2018 20:00:00 12,7 12,1 11,8 12,3 12,4 13,2 2 1 19 10 - 1018,5 10 0 0,0
12.11.2018 19:00:00 13,1 12,0 12,1 12,4 12,5 13,2 5 3 41 22 S 1018,3 10 0 1,2
12.11.2018 18:00:00 14,4 10,7 12,2 12,4 12,5 13,2 36 19 52 28 W 1018,1 8 0 0,4
12.11.2018 17:00:00 16,4 8,3 14,6 12,8 12,5 13,2 9 5 29 15 S 1016,2 10 0 0,0
12.11.2018 16:00:00 17,1 8,2 15,6 13,6 12,3 13,2 15 8 38 21 S 1015,8 10 34 0,0
12.11.2018 15:00:00 17,9 8,4 17,9 13,9 12,1 13,2 11 6 31 17 S 1015,8 10 47 0,0
12.11.2018 14:00:00 16,2 8,9 15,9 13,0 11,9 13,2 4 2 16 8 - 1015,9 10 0 0,0
12.11.2018 13:00:00 14,3 10,3 13,8 12,4 11,7 13,2 4 2 5 3 - 1016,1 10 0 0,0
12.11.2018 12:00:00 13,7 10,5 13,2 12,2 11,6 13,2 2 1 8 4 - 1016,0 10 0 0,0
12.11.2018 11:00:00 13,6 10,8 13,6 11,7 11,5 13,2 2 1 13 7 - 1015,9 10 0 0,0
12.11.2018 10:00:00 12,1 10,4 11,7 11,2 11,4 13,2 4 2 20 11 - 1015,7 10 0 0,0
12.11.2018 09:00:00 11,4 9,9 11,0 10,9 11,4 13,2 4 2 5 3 WSW 1015,5 10 0 0,0
12.11.2018 08:00:00 11,0 9,7 10,5 10,7 11,4 13,2 4 2 16 9 SSW 1015,1 50 0 0,0
12.11.2018 07:00:00 11,2 9,5 10,3 10,6 11,4 13,2 5 3 8 4 ENE 1014,6 50 0 0,0
12.11.2018 06:00:00 11,2 9,5 10,3 10,5 11,4 13,2 8 4 9 5 E 1014,5 10 0 0,0
12.11.2018 05:00:00 10,1 9,3 9,2 10,3 11,5 13,2 4 2 8 4 NE 1014,6 50 0 0,0
12.11.2018 04:00:00 10,8 9,4 9,6 10,5 11,5 13,2 4 2 9 5 NNE 1014,8 10 0 0,0
12.11.2018 03:00:00 10,5 9,3 9,4 10,5 11,6 13,2 4 2 5 3 - 1015,0 10 0 0,0
12.11.2018 02:00:00 11,2 9,4 9,7 10,5 11,7 13,2 5 3 16 9 S 1015,1 10 0 0,0
12.11.2018 01:00:00 12,9 9,4 10,7 10,9 11,7 13,1 15 8 18 10 S 1015,0 10 0 0,0
12.11.2018 00:00:00 13,1 9,6 10,9 11,1 11,7 13,1 10 5 29 16 WSW 1015,1 50 0 0,0
11.11.2018 23:00:00 14,3 9,2 12,9 10,9 11,7 13,1 16 9 24 13 SW 1014,4 10 0 0,0
11.11.2018 22:00:00 14,1 8,4 12,1 10,6 11,8 13,1 9 5 12 7 S 1013,4 10 0 0,0
11.11.2018 21:00:00 10,6 7,4 9,1 10,2 12,0 13,1 5 3 18 10 ESE 1013,1 10 0 0,0
11.11.2018 20:00:00 11,0 7,4 7,8 10,6 12,3 13,1 4 2 27 15 SE 1012,8 10 0 0,0
11.11.2018 19:00:00 12,1 7,8 7,4 11,2 12,5 13,1 9 5 26 14 SSE 1012,5 60 0 0,0
11.11.2018 18:00:00 13,9 7,9 12,2 11,8 12,6 13,1 9 5 27 15 SSE 1012,4 10 0 0,0
11.11.2018 17:00:00 14,9 8,0 12,6 12,6 12,7 13,1 15 8 32 17 S 1012,0 10 38 0,0
11.11.2018 16:00:00 16,1 7,9 15,6 13,3 12,7 13,1 18 10 41 22 S 1011,6 10 37 0,0
11.11.2018 15:00:00 15,7 8,6 15,3 13,7 12,6 13,1 24 13 48 26 S 1011,6 60 0 0,0
11.11.2018 14:00:00 15,8 9,0 15,6 14,0 12,4 13,1 24 13 44 24 S 1011,8 70 9 0,0
11.11.2018 13:00:00 15,0 8,6 14,9 14,4 12,1 13,1 21 11 44 24 SSW 1011,5 65 52 0,0
11.11.2018 12:00:00 14,3 9,1 15,2 13,7 11,7 13,1 21 11 41 22 S 1011,4 10 57 0,0
11.11.2018 11:00:00 13,2 9,7 14,6 12,6 11,5 13,1 16 9 41 22 S 1011,6 10 60 0,0
11.11.2018 10:00:00 12,2 10,1 12,9 11,4 11,3 13,1 15 8 41 22 S 1011,5 10 47 0,0
11.11.2018 09:00:00 11,6 10,0 11,7 10,7 11,3 13,1 18 10 35 19 S 1010,3 10 8 0,1
11.11.2018 08:00:00 11,2 10,4 10,6 10,6 11,3 13,1 15 8 37 20 S 1010,3 4,0 0 3,7
11.11.2018 07:00:00 11,2 10,3 10,5 10,4 11,4 13,1 13 7 33 18 SSW 1009,5 8 0 0,6
11.11.2018 06:00:00 10,8 10,0 10,0 10,0 11,5 13,1 9 5 25 13 S 1008,7 10 0 0,0
11.11.2018 05:00:00 10,3 9,7 9,2 10,1 11,6 13,1 16 9 22 12 SSE 1008,8 10 0 0,0
11.11.2018 04:00:00 10,8 9,8 8,7 10,8 11,7 13,1 13 7 26 14 S 1009,3 18 0 0,0
11.11.2018 03:00:00 12,1 10,8 11,5 11,3 11,7 13,1 19 11 32 17 S 1009,3 18 0 0,0
11.11.2018 02:00:00 12,1 10,9 11,3 11,4 11,7 13,1 17 9 39 21 S 1008,6 17 0 0,9
11.11.2018 01:00:00 12,2 11,0 11,4 11,5 11,7 13,1 24 13 41 22 S 1008,9 8 0 3,6
11.11.2018 00:00:00 12,3 10,9 11,4 11,5 11,7 13,1 7 4 22 12 S 1008,2 15 0 0,8
10.11.2018 23:00:00 12,6 10,8 11,8 11,4 11,7 13,2 13 7 35 19 SSE 1007,9 10 0 0,0
10.11.2018 22:00:00 12,4 10,3 11,1 11,4 11,7 13,2 16 9 40 22 S 1008,1 16 0 0,3
10.11.2018 21:00:00 12,7 9,4 11,0 11,4 11,7 13,2 13 7 42 23 S 1007,8 10 0 0,2
10.11.2018 20:00:00 13,4 9,0 11,2 11,4 11,7 13,2 15 8 33 18 S 1007,6 10 0 0,1
10.11.2018 19:00:00 13,8 8,5 12,8 11,3 11,7 13,2 11 6 38 20 SSE 1007,4 50 0 0,0
10.11.2018 18:00:00 13,5 8,1 12,4 11,4 11,7 13,2 13 7 37 20 - 1007,9 10 0 0,0
10.11.2018 17:00:00 12,6 7,8 11,7 11,7 11,7 13,2 15 8 34 18 S 1008,2 10 0 0,0
10.11.2018 16:00:00 13,0 8,0 12,2 12,1 11,6 13,2 13 7 31 17 S 1007,9 10 0 0,0
10.11.2018 15:00:00 13,3 8,3 13,0 12,6 11,5 13,2 8 5 26 14 S 1007,9 17 0 0,0
10.11.2018 14:00:00 12,7 8,4 13,2 12,5 11,2 13,2 6 3 12 6 ESE 1008,2 14 8 0,0
10.11.2018 13:00:00 11,4 7,8 12,1 11,8 11,0 13,2 2 1 8 4 SSW 1009,0 11 0 0,0
10.11.2018 12:00:00 10,6 7,6 11,1 11,2 10,9 13,2 5 3 8 4 SSW 1009,3 10 2 0,0
10.11.2018 11:00:00 9,9 7,0 10,1 10,2 10,8 13,2 5 3 9 5 E 1009,7 9 0 0,0
10.11.2018 10:00:00 9,0 7,2 8,7 9,8 10,8 13,2 9 5 11 6 N 1009,6 8 0 0,0
10.11.2018 09:00:00 8,9 6,9 8,3 9,5 10,8 13,2 5 3 13 7 ENE 1009,6 6 0 0,1
10.11.2018 08:00:00 8,7 6,9 7,9 9,5 10,8 13,2 7 4 13 7 ENE 1009,8 6 0 0,4
10.11.2018 07:00:00 8,6 6,3 7,8 9,4 10,8 13,2 5 3 15 8 ENE 1010,1 9 0 0,0
10.11.2018 06:00:00 8,8 6,0 8,0 9,4 10,9 13,2 5 3 9 5 NE 1010,2 9 0 0,0
10.11.2018 05:00:00 8,4 6,1 7,7 9,3 10,9 13,2 5 3 11 6 ENE 1010,2 10 0 0,0

tt = temperature
td = dewpoint
tt 5cm = temperature 5cm
tt -5cm = temperature -5cm
tt -20cm = temperature -20cm
tt -100cm = temperature -100cm
ff = wind speed
fx = gusts
dd = wind direction
ppp = reduced air pressure
vv = visibility
sd = sunshine duration
rr = precipitation

Next stations